Regional Weather Roundup
Issued by NWS Jackson, KY

Home | Current Version | Previous Version | Graphics & Text | Print | Product List | Glossary On
Versions: 1 2 3 4 5 6 7 8 9 10 11 12 13 14 15 16 17 18 19 20 21 22 23 24 25 26 27 28 29 30 31 32 33 34 35 36 37 38 39 40 41 42 43 44 45 46 47 48 49 50
000
ASUS43 KJKL 310919
RWRJKL

EAST KENTUCKY HOURLY WEATHER ROUNDUP
NATIONAL WEATHER SERVICE JACKSON KY
500 AM EDT FRI OCT 31 2014

NOTE: "FAIR" INDICATES FEW OR NO CLOUDS BELOW 12,000 FEET WITH
NO SIGNIFICANT WEATHER AND/OR OBSTRUCTIONS TO VISIBILITY.

* THESE REPORTS ARE NOT UNDER NWS QUALITY CONTROL AND MAY NOT
  REPORT WEATHER SUCH AS PRECIPITATION AND FOG.

KYZ079-080-083-085-087-088-110-112-115-119-120-311000
...EASTERN KENTUCKY...

CITY           SKY/WX    TMP DP  RH WIND       PRES   REMARKS
JACKSON        CLOUDY    41  34  76 CALM      29.99F
SOMERSET*      CLOUDY    39  39 100 CALM      30.01F
MONTICELLO*    CLOUDY    42  41  97 CALM      30.01F
MIDDLESBORO*   FOG       36  36 100 CALM      30.01F VSB 1/2
HARLAN APT*    CLOUDY    36  36 100 E6        29.99F VSB<1/4 WCI  31
HAZARD APT*    CLOUDY    37  37 100 CALM      29.99F
BLACK MTN*       N/A     36  30  80 N1          N/A
PIKEVILLE APT* CLOUDY    37  36  93 CALM      29.98F
BIG SANDY*     PTSUNNY   37  35  96 CALM      29.99F
MOREHEAD APT*  CLOUDY    41  37  87 CALM      30.02S
ASHLAND*       MOCLDY    37  34  87 CALM      29.99F
$$

KYZ035-036-041-042-044-050-067-078-099-311000
...CENTRAL KENTUCKY...

CITY           SKY/WX    TMP DP  RH WIND       PRES   REMARKS
MT STERLING*   CLOUDY    41  37  87 S3        30.01F
FLEMING/MASON* CLOUDY    39  39 100 CALM      30.01F
DANVILLE*      CLOUDY    41  39  93 CALM      30.00F
RICHMOND*      CLOUDY    39  37  93 CALM      29.99F
LEXINGTON      LGT RAIN  46  40  79 CALM      30.00F
FRANKFORT      LGT RAIN  43  40  89 N3        29.99F
$$

KYZ091>093-OHZ055-061-077-WVZ005-015-034-035-042-311000
...SOUTHERN OHIO/WEST VIRGINIA...

CITY           SKY/WX    TMP DP  RH WIND       PRES   REMARKS
COVINGTON      CLOUDY    44  41  89 CALM      29.99F
COLUMBUS       CLOUDY    43  34  70 S3        29.99F
DAYTON         CLOUDY    43  36  76 S5        29.99F
WILMINGTON     CLOUDY    41  36  82 SW5       29.99F
HUNTINGTON     CLOUDY    37  36  96 CALM      30.00F
CHARLESTON     CLOUDY    35  34  96 CALM      30.00S
PINEVILLE*     PTCLDY    33  33 100 MISG      30.03F FOG
BECKLEY        CLEAR     36  30  79 SE7       29.96F WCI  30
BLUEFIELD      CLOUDY    37  31  78 E3        29.97F
$$

VAZ002-007-008-TNZ017-027-036-066-071-311000
...SOUTHWEST VIRGINIA/EAST TENNESSEE...

CITY           SKY/WX    TMP DP  RH WIND       PRES   REMARKS
WISE*          CLEAR     36  36 100 SW3       29.97F
JONESVILLE*    MOSUNNY   32  32 100 CALM      30.01S FOG
ABINGDON*      CLEAR     37  35  92 CALM      29.97F
BRISTOL        FOG       35  35 100 CALM      29.98F VSB 1/8
KNOXVILLE      CLEAR     41  39  93 CALM      29.97F
OAK RIDGE      PTCLDY    40  38  93 CALM      30.00F
CROSSVILLE     CLOUDY    42  37  82 CALM      29.98F
NASHVILLE      CLOUDY    50  45  83 CALM      29.99R
$$

...KEY TO REMARKS...
VSB - VISIBILITY IN MILES
WCI - WIND CHILL INDEX
HX  - HEAT INDEX

$$



USA.gov is the U.S. government's official web portal to all federal, state and local government web resources and services.